Voltar ao catálogo

YAOGAN 2

AtivoMilitarSSO
NORAD 31490·PAYLOAD·🇨🇳 China

Lançado May 25, 2007 de Jiuquan Satellite Launch Center

Loading…

Próximas Passagens (próximas 24 horas)

TLE

AtualizadoSource: Space-Track

Época: Sep 14, 2026, 00:45 UTC

1 31490U 07019A   26257.03187905  .00000580  00000-0  78726-4 0  9996
2 31490  98.2511 120.5213 0020324 350.7931   9.2906 14.82780534 40785

Acompanhe YAOGAN 2 em tempo real com AllMySat

Download on the App Store